Time,TemperatureF,DewpointF,PressureIn,WindDirection,WindDirectionDegrees,WindSpeedMPH,WindSpeedGustMPH,Humidity,HourlyPrecipIn,Conditions,Clouds,dailyrainin,SoftwareType,DateUTC
2013-08-01 00:01:00,73.6,64.8,30.09,WSW,248,3.1,8.1,74,0.00,,---,0.00,VWS V14.01,2013-08-01 04:01:00,
2013-08-01 00:02:00,73.6,64.8,30.09,SW,229,5.8,6.3,74,0.00,,---,0.00,VWS V14.01,2013-08-01 04:02:00,
2013-08-01 00:03:00,73.6,64.8,30.09,WSW,240,4.0,8.3,74,0.00,,---,0.00,VWS V14.01,2013-08-01 04:03:00,
2013-08-01 00:04:00,73.6,64.8,30.09,SW,224,5.8,6.7,74,0.00,,---,0.00,VWS V14.01,2013-08-01 04:04:00,
2013-08-01 00:09:00,73.4,64.6,30.09,South,173,2.7,2.7,74,0.00,,---,0.00,VWS V14.01,2013-08-01 04:09:00,
2013-08-01 00:14:00,73.4,65.0,30.09,SW,215,3.6,3.6,75,0.00,,---,0.00,VWS V14.01,2013-08-01 04:14:00,
2013-08-01 00:19:00,73.4,65.0,30.09,WSW,238,5.4,5.4,75,0.00,,---,0.00,VWS V14.01,2013-08-01 04:19:00,
2013-08-01 00:24:00,73.4,65.0,30.09,SW,219,5.8,5.8,75,0.00,,---,0.00,VWS V14.01,2013-08-01 04:24:00,
2013-08-01 00:29:00,73.2,65.2,30.09,SW,228,6.3,6.3,76,0.00,,---,0.00,VWS V14.01,2013-08-01 04:29:00,
2013-08-01 00:34:00,73.2,65.2,30.09,SW,222,3.6,5.8,76,0.00,,---,0.00,VWS V14.01,2013-08-01 04:34:00,
2013-08-01 00:39:00,73.2,65.2,30.09,SW,223,6.3,6.3,76,0.00,,---,0.00,VWS V14.01,2013-08-01 04:39:00,
2013-08-01 00:44:00,73.2,65.2,30.09,South,191,6.3,6.3,76,0.00,,---,0.00,VWS V14.01,2013-08-01 04:44:00,
2013-08-01 00:49:00,73.2,65.2,30.09,SW,222,3.1,5.4,76,0.00,,---,0.00,VWS V14.01,2013-08-01 04:49:00,
2013-08-01 00:54:00,73.0,65.0,30.09,SW,219,4.9,5.4,76,0.00,,---,0.00,VWS V14.01,2013-08-01 04:54:00,
2013-08-01 00:59:00,73.0,65.0,30.09,SSW,195,4.9,4.9,76,0.00,,---,0.00,VWS V14.01,2013-08-01 04:59:00,
2013-08-01 01:04:00,73.0,65.0,30.09,SW,214,3.1,4.5,76,0.00,,---,0.00,VWS V14.01,2013-08-01 05:04:00,
2013-08-01 01:09:00,73.0,65.0,30.09,SSW,210,5.8,5.8,76,0.00,,---,0.00,VWS V14.01,2013-08-01 05:09:00,
2013-08-01 01:14:00,73.0,65.0,30.09,SSW,202,5.4,6.3,76,0.00,,---,0.00,VWS V14.01,2013-08-01 05:14:00,
2013-08-01 01:19:00,73.0,65.0,30.09,SSW,208,4.0,5.8,76,0.00,,---,0.00,VWS V14.01,2013-08-01 05:19:00,
2013-08-01 01:24:00,73.0,65.0,30.09,SSW,192,5.4,5.4,76,0.00,,---,0.00,VWS V14.01,2013-08-01 05:24:00,
2013-08-01 01:29:00,73.0,65.0,30.09,South,189,5.8,5.8,76,0.00,,---,0.00,VWS V14.01,2013-08-01 05:29:00,
2013-08-01 01:34:00,73.0,65.4,30.09,South,183,3.6,6.3,77,0.00,,---,0.00,VWS V14.01,2013-08-01 05:34:00,
2013-08-01 01:39:00,73.0,65.4,30.09,SSW,212,5.4,5.4,77,0.00,,---,0.00,VWS V14.01,2013-08-01 05:39:00,
2013-08-01 01:44:00,73.0,65.4,30.06,SW,235,5.8,5.8,77,0.00,,---,0.00,VWS V14.01,2013-08-01 05:44:00,
2013-08-01 01:50:00,73.0,65.4,30.06,WSW,239,2.7,5.8,77,0.00,,---,0.00,VWS V14.01,2013-08-01 05:50:00,
2013-08-01 01:55:00,73.0,65.4,30.06,SSW,201,2.7,5.8,77,0.00,,---,0.00,VWS V14.01,2013-08-01 05:55:00,
2013-08-01 02:01:00,73.0,65.8,30.06,SW,222,8.1,8.1,78,0.00,,---,0.00,VWS V14.01,2013-08-01 06:01:00,
2013-08-01 02:07:00,72.9,65.6,30.06,SSW,195,5.4,5.4,78,0.00,,---,0.00,VWS V14.01,2013-08-01 06:07:00,
2013-08-01 02:12:00,72.9,65.6,30.06,SSW,201,4.0,5.8,78,0.00,,---,0.00,VWS V14.01,2013-08-01 06:12:00,
2013-08-01 02:17:00,72.9,65.6,30.06,SW,236,7.6,7.6,78,0.00,,---,0.00,VWS V14.01,2013-08-01 06:17:00,
2013-08-01 02:22:00,72.9,65.6,30.06,South,189,8.3,8.3,78,0.00,,---,0.00,VWS V14.01,2013-08-01 06:22:00,
2013-08-01 02:27:00,72.9,65.6,30.06,SW,223,5.4,5.4,78,0.00,,---,0.00,VWS V14.01,2013-08-01 06:27:00,
2013-08-01 02:33:00,72.9,66.0,30.06,SW,216,2.7,7.2,79,0.00,,---,0.00,VWS V14.01,2013-08-01 06:33:00,
2013-08-01 02:39:00,72.9,66.0,30.06,SW,219,2.7,5.4,79,0.00,,---,0.00,VWS V14.01,2013-08-01 06:39:00,
2013-08-01 02:44:00,72.9,66.0,30.06,SW,236,0.0,4.0,79,0.00,,---,0.00,VWS V14.01,2013-08-01 06:44:00,
2013-08-01 02:49:00,72.7,65.8,30.06,SSW,213,3.6,5.4,79,0.00,,---,0.00,VWS V14.01,2013-08-01 06:49:00,
2013-08-01 02:55:00,72.7,65.8,30.06,SSW,211,4.0,7.6,79,0.00,,---,0.00,VWS V14.01,2013-08-01 06:55:00,
2013-08-01 03:01:00,72.7,65.8,30.06,SW,217,8.3,8.3,79,0.00,,---,0.00,VWS V14.01,2013-08-01 07:01:00,
2013-08-01 03:06:00,72.7,65.8,30.06,South,189,5.4,5.8,79,0.00,,---,0.00,VWS V14.01,2013-08-01 07:06:00,
2013-08-01 03:11:00,72.7,65.8,30.06,SW,233,4.9,5.8,79,0.00,,---,0.00,VWS V14.01,2013-08-01 07:11:00,
2013-08-01 03:17:00,72.7,65.8,30.06,WSW,240,5.8,7.2,79,0.00,,---,0.00,VWS V14.01,2013-08-01 07:17:00,
2013-08-01 03:22:00,72.9,66.0,30.06,SW,222,5.8,8.1,79,0.00,,---,0.00,VWS V14.01,2013-08-01 07:22:00,
2013-08-01 03:27:00,72.9,66.0,30.06,South,183,4.9,5.8,79,0.00,,---,0.00,VWS V14.01,2013-08-01 07:27:00,
2013-08-01 03:32:00,72.9,66.0,30.03,SW,233,3.6,6.3,79,0.00,,---,0.00,VWS V14.01,2013-08-01 07:32:00,
2013-08-01 03:38:00,72.9,66.0,30.03,SW,216,6.3,8.3,79,0.00,,---,0.00,VWS V14.01,2013-08-01 07:38:00,
2013-08-01 03:43:00,72.9,66.0,30.03,SW,234,4.0,8.3,79,0.00,,---,0.00,VWS V14.01,2013-08-01 07:43:00,
2013-08-01 03:49:00,72.9,66.0,30.03,SSW,196,5.8,6.7,79,0.00,,---,0.00,VWS V14.01,2013-08-01 07:49:00,
2013-08-01 03:50:00,72.9,66.0,30.03,SSW,197,5.8,6.3,79,0.00,,---,0.00,VWS V14.01,2013-08-01 07:50:00,
2013-08-01 03:55:00,72.9,66.0,30.03,SW,233,5.8,8.1,79,0.00,,---,0.00,VWS V14.01,2013-08-01 07:55:00,
2013-08-01 04:00:00,72.9,66.0,30.03,SW,228,5.4,6.3,79,0.00,,---,0.00,VWS V14.01,2013-08-01 08:00:00,
2013-08-01 04:06:00,72.9,66.0,30.03,SW,229,6.3,8.1,79,0.00,,---,0.00,VWS V14.01,2013-08-01 08:06:00,
2013-08-01 04:11:00,72.9,66.0,30.03,WSW,253,5.4,8.3,79,0.00,,---,0.00,VWS V14.01,2013-08-01 08:11:00,
2013-08-01 04:17:00,72.9,65.6,30.03,WSW,249,6.3,6.3,78,0.00,,---,0.00,VWS V14.01,2013-08-01 08:17:00,
2013-08-01 04:22:00,72.9,65.6,30.03,SW,228,3.6,6.3,78,0.00,,---,0.00,VWS V14.01,2013-08-01 08:22:00,
2013-08-01 04:28:00,73.0,65.8,30.03,SW,227,7.6,7.6,78,0.00,,---,0.00,VWS V14.01,2013-08-01 08:28:00,
2013-08-01 04:34:00,73.0,66.2,30.03,SW,230,4.9,5.8,79,0.00,,---,0.00,VWS V14.01,2013-08-01 08:34:00,
2013-08-01 04:39:00,73.0,66.2,30.03,SSW,205,6.3,6.3,79,0.00,,---,0.00,VWS V14.01,2013-08-01 08:39:00,
2013-08-01 04:44:00,72.9,66.0,30.03,SSW,207,7.6,7.6,79,0.00,,---,0.00,VWS V14.01,2013-08-01 08:44:00,
2013-08-01 04:49:00,73.0,66.2,30.03,WSW,237,3.1,6.3,79,0.00,,---,0.00,VWS V14.01,2013-08-01 08:49:00,
2013-08-01 04:54:00,73.0,66.5,30.03,SSW,193,5.8,8.1,80,0.00,,---,0.00,VWS V14.01,2013-08-01 08:54:00,
2013-08-01 05:00:00,73.0,66.5,30.03,SW,232,5.8,7.6,80,0.00,,---,0.00,VWS V14.01,2013-08-01 09:00:00,
2013-08-01 05:05:00,73.0,66.5,30.03,SW,230,5.4,8.1,80,0.00,,---,0.00,VWS V14.01,2013-08-01 09:05:00,
2013-08-01 05:11:00,73.0,66.5,30.03,WSW,245,2.7,5.8,80,0.00,,---,0.00,VWS V14.01,2013-08-01 09:11:00,
2013-08-01 05:16:00,73.0,66.5,30.03,SW,216,2.7,6.3,80,0.00,,---,0.00,VWS V14.01,2013-08-01 09:16:00,
2013-08-01 05:21:00,73.0,66.5,30.03,SW,229,3.1,7.6,80,0.00,,---,0.00,VWS V14.01,2013-08-01 09:21:00,
2013-08-01 05:26:00,73.0,66.5,30.03,West,263,6.3,6.3,80,0.00,,---,0.00,VWS V14.01,2013-08-01 09:26:00,
2013-08-01 05:31:00,73.0,66.5,30.00,SW,235,2.7,6.3,80,0.00,,---,0.00,VWS V14.01,2013-08-01 09:31:00,
2013-08-01 05:36:00,72.9,66.3,30.00,WSW,250,4.0,4.0,80,0.00,,---,0.00,VWS V14.01,2013-08-01 09:36:00,
2013-08-01 05:42:00,72.7,66.5,30.00,WSW,244,7.2,7.2,81,0.00,,---,0.00,VWS V14.01,2013-08-01 09:42:00,
2013-08-01 05:47:00,72.3,66.9,30.03,WSW,246,5.8,5.8,83,0.00,,---,0.00,VWS V14.01,2013-08-01 09:47:00,
2013-08-01 05:52:00,72.1,67.0,30.03,SW,232,0.0,5.4,84,0.00,,---,0.00,VWS V14.01,2013-08-01 09:52:00,
2013-08-01 05:57:00,72.0,66.9,30.03,WSW,238,4.0,4.5,84,0.00,,---,0.00,VWS V14.01,2013-08-01 09:57:00,
2013-08-01 06:04:00,71.8,67.0,30.03,WSW,237,6.3,6.3,85,0.00,,---,0.00,VWS V14.01,2013-08-01 10:04:00,
2013-08-01 06:09:00,72.0,67.2,30.03,WSW,243,3.1,4.9,85,0.00,,---,0.00,VWS V14.01,2013-08-01 10:09:00,
2013-08-01 06:14:00,71.8,67.0,30.03,WSW,251,2.7,4.9,85,0.00,,---,0.00,VWS V14.01,2013-08-01 10:14:00,
2013-08-01 06:19:00,71.8,67.0,30.03,WSW,249,2.7,4.0,85,0.00,,---,0.00,VWS V14.01,2013-08-01 10:19:00,
2013-08-01 06:24:00,71.8,67.0,30.03,WSW,249,5.4,5.4,85,0.00,,---,0.00,VWS V14.01,2013-08-01 10:24:00,
2013-08-01 06:29:00,72.0,67.2,30.03,WSW,244,3.6,3.6,85,0.00,,---,0.00,VWS V14.01,2013-08-01 10:29:00,
2013-08-01 06:34:00,72.0,67.2,30.00,WSW,244,2.2,4.0,85,0.00,,---,0.00,VWS V14.01,2013-08-01 10:34:00,
2013-08-01 06:39:00,72.0,67.2,30.00,WSW,253,4.0,4.9,85,0.00,,---,0.00,VWS V14.01,2013-08-01 10:39:00,
2013-08-01 06:45:00,72.0,67.6,30.00,SW,232,5.4,5.4,86,0.00,,---,0.00,VWS V14.01,2013-08-01 10:45:00,
2013-08-01 06:52:00,72.1,67.7,30.00,WSW,252,2.7,5.4,86,0.00,,---,0.00,VWS V14.01,2013-08-01 10:52:00,
2013-08-01 06:57:00,72.3,67.9,30.00,SW,224,3.1,3.1,86,0.00,,---,0.00,VWS V14.01,2013-08-01 10:57:00,
2013-08-01 07:02:00,72.3,67.9,30.03,SW,226,5.4,5.4,86,0.00,,---,0.00,VWS V14.01,2013-08-01 11:02:00,
2013-08-01 07:07:00,72.3,67.9,30.03,SSW,192,5.4,5.4,86,0.00,,---,0.00,VWS V14.01,2013-08-01 11:07:00,
2013-08-01 07:12:00,72.3,67.6,30.03,SSW,199,3.1,5.8,85,0.00,,---,0.00,VWS V14.01,2013-08-01 11:12:00,
2013-08-01 07:18:00,72.3,67.6,30.00,SSW,194,6.3,6.3,85,0.00,,---,0.00,VWS V14.01,2013-08-01 11:18:00,
2013-08-01 07:24:00,72.5,67.4,30.00,South,180,5.4,6.3,84,0.00,,---,0.00,VWS V14.01,2013-08-01 11:24:00,
2013-08-01 07:30:00,72.5,66.7,30.03,SSW,203,7.2,7.2,82,0.00,,---,0.00,VWS V14.01,2013-08-01 11:30:00,
2013-08-01 07:35:00,72.7,66.2,30.03,SSW,206,5.4,6.3,80,0.00,,---,0.00,VWS V14.01,2013-08-01 11:35:00,
2013-08-01 07:41:00,72.9,66.3,30.03,SSW,204,6.3,6.3,80,0.00,,---,0.00,VWS V14.01,2013-08-01 11:41:00,
2013-08-01 07:46:00,73.0,66.9,30.03,SSW,195,5.4,5.4,81,0.00,,---,0.00,VWS V14.01,2013-08-01 11:46:00,
2013-08-01 07:53:00,73.2,68.1,30.03,South,177,5.4,5.8,84,0.00,,---,0.00,VWS V14.01,2013-08-01 11:53:00,
2013-08-01 07:58:00,73.2,68.4,30.03,SSW,194,6.3,6.3,85,0.00,,---,0.00,VWS V14.01,2013-08-01 11:58:00,
2013-08-01 08:04:00,73.2,68.8,30.00,South,187,6.3,6.7,86,0.00,,---,0.00,VWS V14.01,2013-08-01 12:04:00,
2013-08-01 08:10:00,73.2,68.8,30.00,SSW,204,6.3,8.7,86,0.00,,---,0.00,VWS V14.01,2013-08-01 12:10:00,
2013-08-01 08:16:00,73.4,69.0,30.00,South,180,6.3,6.3,86,0.00,,---,0.00,VWS V14.01,2013-08-01 12:16:00,
2013-08-01 08:22:00,73.4,69.0,30.00,South,178,4.9,7.6,86,0.00,,---,0.00,VWS V14.01,2013-08-01 12:22:00,
2013-08-01 08:27:00,73.6,69.1,30.00,South,182,8.1,8.7,86,0.00,,---,0.00,VWS V14.01,2013-08-01 12:27:00,
2013-08-01 08:32:00,73.6,68.8,30.00,SSE,165,5.8,6.7,85,0.00,,---,0.00,VWS V14.01,2013-08-01 12:32:00,
2013-08-01 08:37:00,73.8,69.0,30.00,South,184,8.1,10.1,85,0.00,,---,0.00,VWS V14.01,2013-08-01 12:37:00,
2013-08-01 08:42:00,73.8,69.0,30.00,SSW,205,10.1,10.1,85,0.00,,---,0.00,VWS V14.01,2013-08-01 12:42:00,
2013-08-01 08:47:00,73.8,68.6,30.00,SSW,206,7.6,8.7,84,0.00,,---,0.00,VWS V14.01,2013-08-01 12:47:00,
2013-08-01 08:54:00,73.6,68.4,30.00,South,190,8.1,10.1,84,0.00,,---,0.00,VWS V14.01,2013-08-01 12:54:00,
2013-08-01 08:59:00,73.4,68.3,30.00,South,187,7.6,8.1,84,0.00,,---,0.00,VWS V14.01,2013-08-01 12:59:00,
2013-08-01 09:05:00,73.2,68.1,30.00,SSW,198,10.5,13.2,84,0.00,,---,0.00,VWS V14.01,2013-08-01 13:05:00,
2013-08-01 09:10:00,73.2,68.1,30.00,SSW,212,10.5,10.5,84,0.00,,---,0.00,VWS V14.01,2013-08-01 13:10:00,
2013-08-01 09:18:00,73.0,68.3,30.00,South,186,8.3,11.0,85,0.00,,---,0.00,VWS V14.01,2013-08-01 13:18:00,
2013-08-01 09:24:00,72.9,65.6,30.00,South,190,11.9,13.6,78,0.00,,---,0.00,VWS V14.01,2013-08-01 13:24:00,
2013-08-01 09:29:00,72.9,64.1,30.00,SSW,200,11.0,15.9,74,0.00,,---,0.00,VWS V14.01,2013-08-01 13:29:00,
2013-08-01 09:35:00,73.0,63.9,30.00,SSW,197,12.3,15.9,73,0.00,,---,0.00,VWS V14.01,2013-08-01 13:35:00,
2013-08-01 09:42:00,73.0,63.1,30.00,SSW,193,9.6,11.0,71,0.00,,---,0.00,VWS V14.01,2013-08-01 13:42:00,
2013-08-01 09:47:00,73.2,63.7,30.00,South,175,14.5,14.5,72,0.00,,---,0.00,VWS V14.01,2013-08-01 13:47:00,
2013-08-01 09:53:00,73.6,63.2,30.00,SSW,195,8.3,11.0,70,0.00,,---,0.00,VWS V14.01,2013-08-01 13:53:00,
2013-08-01 09:58:00,73.9,63.1,30.00,SSE,155,5.4,8.3,69,0.00,,---,0.00,VWS V14.01,2013-08-01 13:58:00,
2013-08-01 10:04:00,74.5,64.5,30.00,South,176,8.1,8.7,71,0.00,,---,0.00,VWS V14.01,2013-08-01 14:04:00,
2013-08-01 10:10:00,74.8,67.2,30.00,South,170,5.8,7.6,77,0.00,,---,0.00,VWS V14.01,2013-08-01 14:10:00,
2013-08-01 10:15:00,75.0,67.7,30.00,South,186,10.5,12.3,78,0.00,,---,0.00,VWS V14.01,2013-08-01 14:15:00,
2013-08-01 10:20:00,75.4,68.1,30.00,South,177,9.6,9.6,78,0.00,,---,0.00,VWS V14.01,2013-08-01 14:20:00,
2013-08-01 10:26:00,75.2,67.5,30.00,SSW,209,10.5,12.8,77,0.00,,---,0.00,VWS V14.01,2013-08-01 14:26:00,
2013-08-01 10:32:00,75.2,67.5,30.00,SW,217,13.2,15.0,77,0.00,,---,0.00,VWS V14.01,2013-08-01 14:32:00,
2013-08-01 10:38:00,75.2,67.5,30.00,South,190,15.4,15.4,77,0.00,,---,0.00,VWS V14.01,2013-08-01 14:38:00,
2013-08-01 10:43:00,75.4,67.7,30.00,SSW,209,12.8,13.2,77,0.00,,---,0.00,VWS V14.01,2013-08-01 14:43:00,
2013-08-01 10:49:00,75.6,67.5,30.00,SSW,192,12.3,17.4,76,0.00,,---,0.00,VWS V14.01,2013-08-01 14:49:00,
2013-08-01 10:54:00,75.6,67.5,30.00,SSW,196,10.1,12.8,76,0.00,,---,0.00,VWS V14.01,2013-08-01 14:54:00,
2013-08-01 11:00:00,75.2,67.1,30.00,South,182,15.0,15.9,76,0.00,,---,0.00,VWS V14.01,2013-08-01 15:00:00,
2013-08-01 11:05:00,75.2,67.5,30.00,South,181,11.9,11.9,77,0.00,,---,0.00,VWS V14.01,2013-08-01 15:05:00,
2013-08-01 11:12:00,75.0,67.3,30.00,South,187,10.5,15.0,77,0.00,,---,0.00,VWS V14.01,2013-08-01 15:12:00,
2013-08-01 11:20:00,75.2,67.1,29.97,South,187,11.0,12.8,76,0.00,,---,0.00,VWS V14.01,2013-08-01 15:20:00,
2013-08-01 11:25:00,75.4,67.3,29.97,South,181,11.0,12.3,76,0.00,,---,0.00,VWS V14.01,2013-08-01 15:25:00,
2013-08-01 11:31:00,75.7,67.6,29.97,SSW,207,12.3,13.6,76,0.00,,---,0.00,VWS V14.01,2013-08-01 15:31:00,
2013-08-01 11:36:00,75.7,67.3,29.97,SSW,194,13.6,13.6,75,0.00,,---,0.00,VWS V14.01,2013-08-01 15:36:00,
2013-08-01 11:44:00,75.7,67.3,29.97,SSW,199,15.0,15.0,75,0.00,,---,0.00,VWS V14.01,2013-08-01 15:44:00,
2013-08-01 11:52:00,75.7,67.3,29.97,SE,143,14.1,15.4,75,0.00,,---,0.00,VWS V14.01,2013-08-01 15:52:00,
2013-08-01 11:57:00,75.9,67.4,29.97,South,184,15.0,17.4,75,0.00,,---,0.00,VWS V14.01,2013-08-01 15:57:00,
2013-08-01 12:02:00,75.9,67.4,29.97,SSW,195,12.8,15.0,75,0.00,,---,0.00,VWS V14.01,2013-08-01 16:02:00,
2013-08-01 12:07:00,76.1,67.6,29.97,SSW,211,12.8,15.0,75,0.00,,---,0.00,VWS V14.01,2013-08-01 16:07:00,
2013-08-01 12:12:00,77.0,67.7,29.97,SSW,206,11.0,15.0,73,0.00,,---,0.00,VWS V14.01,2013-08-01 16:12:00,
2013-08-01 12:17:00,78.1,67.5,29.97,South,185,15.4,17.0,70,0.00,,---,0.00,VWS V14.01,2013-08-01 16:17:00,
2013-08-01 12:22:00,78.1,67.1,29.97,SSW,211,13.2,17.0,69,0.00,,---,0.00,VWS V14.01,2013-08-01 16:22:00,
2013-08-01 12:29:00,78.3,66.8,29.97,SSW,195,12.8,15.9,68,0.00,,---,0.00,VWS V14.01,2013-08-01 16:29:00,
2013-08-01 12:35:00,79.2,67.3,29.97,South,191,18.3,18.3,67,0.00,,---,0.00,VWS V14.01,2013-08-01 16:35:00,
2013-08-01 12:40:00,79.7,67.8,29.97,SSW,211,16.8,16.8,67,0.00,,---,0.00,VWS V14.01,2013-08-01 16:40:00,
2013-08-01 12:45:00,78.6,66.8,29.94,SSW,195,17.4,17.4,67,0.00,,---,0.00,VWS V14.01,2013-08-01 16:45:00,
2013-08-01 12:51:00,77.7,66.8,29.94,SSW,197,12.3,15.0,69,0.00,,---,0.00,VWS V14.01,2013-08-01 16:51:00,
2013-08-01 12:56:00,77.2,66.7,29.94,SW,226,13.2,13.2,70,0.00,,---,0.00,VWS V14.01,2013-08-01 16:56:00,
2013-08-01 13:03:00,76.6,66.9,29.94,SW,235,11.0,12.8,72,0.00,,---,0.00,VWS V14.01,2013-08-01 17:03:00,
2013-08-01 13:13:00,75.9,67.4,29.94,SW,232,12.3,13.2,75,0.00,,---,0.00,VWS V14.01,2013-08-01 17:13:00,
2013-08-01 13:19:00,75.6,67.5,29.94,SSW,194,13.2,13.2,76,0.00,,---,0.00,VWS V14.01,2013-08-01 17:19:00,
2013-08-01 13:24:00,75.4,67.7,29.94,SSW,206,16.8,16.8,77,0.00,,---,0.00,VWS V14.01,2013-08-01 17:24:00,
2013-08-01 13:30:00,75.2,67.5,29.94,SW,218,16.3,16.3,77,0.00,,---,0.00,VWS V14.01,2013-08-01 17:30:00,
2013-08-01 13:35:00,75.0,68.1,29.94,SSW,205,14.5,14.5,79,0.00,,---,0.00,VWS V14.01,2013-08-01 17:35:00,
2013-08-01 13:40:00,74.8,67.9,29.94,South,190,13.2,13.2,79,0.00,,---,0.00,VWS V14.01,2013-08-01 17:40:00,
2013-08-01 13:45:00,74.8,67.9,29.94,SSW,196,11.0,15.9,79,0.00,,---,0.00,VWS V14.01,2013-08-01 17:45:00,
2013-08-01 13:53:00,74.7,68.4,29.94,SW,221,11.4,15.4,81,0.00,,---,0.00,VWS V14.01,2013-08-01 17:53:00,
2013-08-01 13:59:00,74.5,68.3,29.94,SSW,205,17.0,17.0,81,0.00,,---,0.00,VWS V14.01,2013-08-01 17:59:00,
2013-08-01 14:04:00,74.5,68.3,29.94,SSW,210,10.5,13.2,81,0.00,,---,0.00,VWS V14.01,2013-08-01 18:04:00,
2013-08-01 14:09:00,74.5,68.3,29.94,WSW,258,13.2,13.2,81,0.00,,---,0.00,VWS V14.01,2013-08-01 18:09:00,
2013-08-01 14:14:00,74.1,68.3,29.94,SSW,206,12.3,12.8,82,0.00,,---,0.00,VWS V14.01,2013-08-01 18:14:00,
2013-08-01 14:19:00,73.8,68.3,29.94,SW,235,12.8,12.8,83,0.00,,---,0.00,VWS V14.01,2013-08-01 18:19:00,
2013-08-01 14:25:00,73.2,68.8,29.94,SSW,196,15.0,15.9,86,0.00,,---,0.00,VWS V14.01,2013-08-01 18:25:00,
2013-08-01 14:32:00,72.3,67.9,29.91,South,190,13.2,22.8,86,0.00,,---,0.00,VWS V14.01,2013-08-01 18:32:00,
2013-08-01 14:37:00,72.0,68.2,29.91,SSE,168,12.3,12.3,88,0.00,,---,0.00,VWS V14.01,2013-08-01 18:37:00,
2013-08-01 14:43:00,71.2,67.8,29.91,SSW,203,17.0,17.0,89,0.00,,---,0.00,VWS V14.01,2013-08-01 18:43:00,
2013-08-01 14:48:00,70.3,66.9,29.91,SW,229,8.3,15.0,89,0.00,,---,0.00,VWS V14.01,2013-08-01 18:48:00,
2013-08-01 14:53:00,69.8,66.7,29.91,WSW,237,15.4,17.0,90,0.00,,---,0.00,VWS V14.01,2013-08-01 18:53:00,
2013-08-01 14:59:00,69.3,66.5,29.94,SW,233,7.6,15.9,91,0.00,,---,0.00,VWS V14.01,2013-08-01 18:59:00,
2013-08-01 15:04:00,69.3,66.5,29.94,SW,224,8.3,13.2,91,0.00,,---,0.00,VWS V14.01,2013-08-01 19:04:00,
2013-08-01 15:09:00,69.3,66.8,29.94,SW,235,6.3,12.3,92,0.00,,---,0.00,VWS V14.01,2013-08-01 19:09:00,
2013-08-01 15:17:00,69.3,66.8,29.94,West,262,10.5,11.0,92,0.00,,---,0.00,VWS V14.01,2013-08-01 19:17:00,
2013-08-01 15:23:00,69.1,66.7,29.94,WSW,241,12.3,12.3,92,0.00,,---,0.00,VWS V14.01,2013-08-01 19:23:00,
2013-08-01 15:29:00,68.9,66.8,29.94,WNW,285,8.7,15.0,93,0.00,,---,0.00,VWS V14.01,2013-08-01 19:29:00,
2013-08-01 15:34:00,68.9,66.8,29.94,SSW,200,5.8,8.1,93,0.00,,---,0.00,VWS V14.01,2013-08-01 19:34:00,
2013-08-01 15:40:00,68.9,66.8,29.94,WSW,244,8.7,8.7,93,0.00,,---,0.00,VWS V14.01,2013-08-01 19:40:00,
2013-08-01 15:45:00,68.9,66.5,29.94,WSW,250,7.6,8.3,92,0.00,,---,0.00,VWS V14.01,2013-08-01 19:45:00,
2013-08-01 15:52:00,69.1,67.0,29.94,WSW,243,7.6,8.1,93,0.00,,---,0.00,VWS V14.01,2013-08-01 19:52:00,
2013-08-01 15:58:00,68.9,66.5,29.94,SW,225,10.1,10.1,92,0.00,,---,0.00,VWS V14.01,2013-08-01 19:58:00,
2013-08-01 16:05:00,68.7,66.3,29.94,SW,230,8.7,8.7,92,0.00,,---,0.00,VWS V14.01,2013-08-01 20:05:00,
2013-08-01 16:10:00,68.7,66.3,29.94,SSW,211,7.6,8.7,92,0.00,,---,0.00,VWS V14.01,2013-08-01 20:10:00,
2013-08-01 16:15:00,68.7,66.3,29.94,SW,221,6.3,8.3,92,0.00,,---,0.00,VWS V14.01,2013-08-01 20:15:00,
2013-08-01 16:20:00,68.7,66.3,29.94,SW,225,5.8,11.4,92,0.00,,---,0.00,VWS V14.01,2013-08-01 20:20:00,
2013-08-01 16:27:00,68.7,66.3,29.94,SSW,193,8.1,12.8,92,0.00,,---,0.00,VWS V14.01,2013-08-01 20:27:00,
2013-08-01 16:32:00,68.7,66.3,29.91,SSW,196,8.3,9.6,92,0.00,,---,0.00,VWS V14.01,2013-08-01 20:32:00,
2013-08-01 16:38:00,68.7,66.3,29.91,SSW,200,8.7,8.7,92,0.00,,---,0.00,VWS V14.01,2013-08-01 20:38:00,
2013-08-01 16:41:00,68.9,66.5,29.91,South,189,10.5,11.0,92,0.00,,---,0.00,VWS V14.01,2013-08-01 20:41:00,
2013-08-01 16:46:00,69.1,66.7,29.91,SSW,213,9.6,9.6,92,0.00,,---,0.00,VWS V14.01,2013-08-01 20:46:00,
2013-08-01 16:51:00,69.1,66.7,29.91,SSW,205,5.4,7.6,92,0.00,,---,0.00,VWS V14.01,2013-08-01 20:51:00,
2013-08-01 16:56:00,69.1,66.7,29.91,SSW,199,8.7,9.2,92,0.00,,---,0.00,VWS V14.01,2013-08-01 20:56:00,
2013-08-01 17:01:00,69.3,66.8,29.91,SSW,195,7.6,10.1,92,0.00,,---,0.00,VWS V14.01,2013-08-01 21:01:00,
2013-08-01 17:06:00,69.4,67.0,29.91,SSW,192,6.7,8.3,92,0.00,,---,0.00,VWS V14.01,2013-08-01 21:06:00,
2013-08-01 17:11:00,69.4,67.0,29.91,SSE,164,4.0,5.4,92,0.00,,---,0.00,VWS V14.01,2013-08-01 21:11:00,
2013-08-01 17:16:00,69.4,67.0,29.88,SE,137,3.6,5.4,92,0.00,,---,0.00,VWS V14.01,2013-08-01 21:16:00,
2013-08-01 17:21:00,69.4,67.0,29.88,SSW,208,3.1,4.0,92,0.00,,---,0.00,VWS V14.01,2013-08-01 21:21:00,
2013-08-01 17:27:00,69.6,67.2,29.88,SE,140,5.4,5.4,92,0.00,,---,0.00,VWS V14.01,2013-08-01 21:27:00,
2013-08-01 17:32:00,69.6,67.2,29.91,SSE,157,8.3,8.7,92,0.00,,---,0.00,VWS V14.01,2013-08-01 21:32:00,
2013-08-01 17:37:00,69.8,67.1,29.91,SSW,194,6.3,6.3,91,0.00,,---,0.00,VWS V14.01,2013-08-01 21:37:00,
2013-08-01 17:43:00,70.0,67.6,29.91,SSE,158,3.6,5.8,92,0.00,,---,0.00,VWS V14.01,2013-08-01 21:43:00,
2013-08-01 17:48:00,70.0,67.6,29.91,SE,141,6.3,8.3,92,0.00,,---,0.00,VWS V14.01,2013-08-01 21:48:00,
2013-08-01 17:53:00,70.2,67.7,29.91,SSE,159,5.4,6.3,92,0.00,,---,0.00,VWS V14.01,2013-08-01 21:53:00,
2013-08-01 17:59:00,70.3,67.9,29.91,SSE,168,4.0,5.4,92,0.00,,---,0.00,VWS V14.01,2013-08-01 21:59:00,
2013-08-01 18:04:00,70.5,68.4,29.91,South,175,4.0,8.3,93,0.00,,---,0.00,VWS V14.01,2013-08-01 22:04:00,
2013-08-01 18:10:00,70.7,68.6,29.91,South,171,8.7,8.7,93,0.00,,---,0.00,VWS V14.01,2013-08-01 22:10:00,
2013-08-01 18:16:00,70.7,68.6,29.91,SSW,194,6.7,8.7,93,0.00,,---,0.00,VWS V14.01,2013-08-01 22:16:00,
2013-08-01 18:21:00,70.7,68.6,29.91,SE,142,8.1,11.4,93,0.00,,---,0.00,VWS V14.01,2013-08-01 22:21:00,
2013-08-01 18:26:00,70.7,68.6,29.91,South,169,8.7,8.7,93,0.00,,---,0.00,VWS V14.01,2013-08-01 22:26:00,
2013-08-01 18:31:00,70.7,68.6,29.91,SE,141,5.8,6.7,93,0.00,,---,0.00,VWS V14.01,2013-08-01 22:31:00,
2013-08-01 18:37:00,70.7,68.6,29.91,South,189,4.0,8.1,93,0.00,,---,0.00,VWS V14.01,2013-08-01 22:37:00,
2013-08-01 18:42:00,70.9,68.8,29.91,South,172,8.1,8.3,93,0.00,,---,0.00,VWS V14.01,2013-08-01 22:42:00,
2013-08-01 18:47:00,71.1,69.2,29.91,SSW,196,10.1,11.4,94,0.00,,---,0.00,VWS V14.01,2013-08-01 22:47:00,
2013-08-01 18:52:00,71.2,69.4,29.91,South,183,8.3,10.5,94,0.00,,---,0.00,VWS V14.01,2013-08-01 22:52:00,
2013-08-01 18:57:00,71.4,69.6,29.91,South,189,8.3,10.5,94,0.00,,---,0.00,VWS V14.01,2013-08-01 22:57:00,
2013-08-01 19:02:00,71.4,69.6,29.91,South,177,8.7,10.5,94,0.00,,---,0.00,VWS V14.01,2013-08-01 23:02:00,
2013-08-01 19:07:00,71.6,69.8,29.91,SSW,198,6.7,9.2,94,0.00,,---,0.00,VWS V14.01,2013-08-01 23:07:00,
2013-08-01 19:12:00,71.6,69.8,29.91,South,188,10.5,12.3,94,0.00,,---,0.00,VWS V14.01,2013-08-01 23:12:00,
2013-08-01 19:17:00,71.6,69.2,29.91,SSW,209,8.1,9.6,92,0.00,,---,0.00,VWS V14.01,2013-08-01 23:17:00,
2013-08-01 19:22:00,71.8,69.0,29.91,SSW,196,9.2,10.1,91,0.00,,---,0.00,VWS V14.01,2013-08-01 23:22:00,
2013-08-01 19:28:00,71.8,67.7,29.91,SW,235,10.5,10.5,87,0.00,,---,0.00,VWS V14.01,2013-08-01 23:28:00,
2013-08-01 19:34:00,72.0,67.2,29.91,SSW,212,11.0,15.0,85,0.00,,---,0.00,VWS V14.01,2013-08-01 23:34:00,
2013-08-01 19:39:00,71.8,66.7,29.91,SW,218,12.3,15.4,84,0.00,,---,0.00,VWS V14.01,2013-08-01 23:39:00,
2013-08-01 19:44:00,72.0,67.2,29.91,South,184,13.2,13.6,85,0.00,,---,0.00,VWS V14.01,2013-08-01 23:44:00,
2013-08-01 19:49:00,72.1,68.4,29.91,SSW,195,10.5,13.6,88,0.00,,---,0.00,VWS V14.01,2013-08-01 23:49:00,
2013-08-01 19:54:00,72.3,68.9,29.91,SW,227,17.4,17.4,89,0.00,,---,0.00,VWS V14.01,2013-08-01 23:54:00,
2013-08-01 20:00:00,72.5,69.4,29.91,SSW,212,12.3,15.0,90,0.00,,---,0.00,VWS V14.01,2013-08-02 00:00:00,
2013-08-01 20:06:00,72.5,69.4,29.91,SW,220,17.0,17.0,90,0.00,,---,0.00,VWS V14.01,2013-08-02 00:06:00,
2013-08-01 20:12:00,72.5,69.7,29.91,South,186,12.8,13.2,91,0.00,,---,0.00,VWS V14.01,2013-08-02 00:12:00,
2013-08-01 20:17:00,72.5,70.1,29.88,SW,218,11.0,17.0,92,0.00,,---,0.00,VWS V14.01,2013-08-02 00:17:00,
2013-08-01 20:22:00,72.5,70.1,29.88,SW,214,12.8,15.0,92,0.00,,---,0.00,VWS V14.01,2013-08-02 00:22:00,
2013-08-01 20:27:00,72.5,70.1,29.88,SSW,202,8.3,13.2,92,0.00,,---,0.00,VWS V14.01,2013-08-02 00:27:00,
2013-08-01 20:33:00,72.3,69.9,29.88,SW,224,11.0,11.0,92,0.00,,---,0.00,VWS V14.01,2013-08-02 00:33:00,
2013-08-01 20:39:00,72.1,69.7,29.88,SW,226,15.4,15.4,92,0.00,,---,0.00,VWS V14.01,2013-08-02 00:39:00,
2013-08-01 20:46:00,72.0,69.8,29.88,SSE,167,14.5,14.5,93,0.00,,---,0.00,VWS V14.01,2013-08-02 00:46:00,
2013-08-01 20:52:00,71.8,69.7,29.88,SW,218,7.2,8.3,93,0.00,,---,0.00,VWS V14.01,2013-08-02 00:52:00,
2013-08-01 20:57:00,71.6,69.8,29.88,WSW,245,8.1,8.1,94,0.00,,---,0.00,VWS V14.01,2013-08-02 00:57:00,
2013-08-01 21:02:00,71.6,69.8,29.88,SW,234,6.7,10.1,94,0.00,,---,0.00,VWS V14.01,2013-08-02 01:02:00,
2013-08-01 21:07:00,71.4,69.6,29.88,WSW,252,10.5,13.2,94,0.00,,---,0.00,VWS V14.01,2013-08-02 01:07:00,
2013-08-01 21:12:00,71.4,69.9,29.88,WSW,247,10.5,11.0,95,0.00,,---,0.00,VWS V14.01,2013-08-02 01:12:00,
2013-08-01 21:17:00,71.4,69.9,29.88,SW,229,5.4,8.1,95,0.00,,---,0.00,VWS V14.01,2013-08-02 01:17:00,
2013-08-01 21:22:00,71.4,69.9,29.88,WSW,246,6.3,8.3,95,0.00,,---,0.00,VWS V14.01,2013-08-02 01:22:00,
2013-08-01 21:27:00,71.4,69.9,29.88,West,272,7.6,7.6,95,0.00,,---,0.00,VWS V14.01,2013-08-02 01:27:00,
2013-08-01 21:32:00,71.4,69.9,29.88,West,280,8.3,8.7,95,0.00,,---,0.00,VWS V14.01,2013-08-02 01:32:00,
2013-08-01 21:37:00,71.2,69.7,29.88,WSW,255,5.8,8.1,95,0.00,,---,0.00,VWS V14.01,2013-08-02 01:37:00,
2013-08-01 21:42:00,71.1,69.6,29.88,West,278,7.2,10.5,95,0.00,,---,0.00,VWS V14.01,2013-08-02 01:42:00,
2013-08-01 21:48:00,70.9,69.1,29.88,WNW,293,5.4,5.8,94,0.00,,---,0.00,VWS V14.01,2013-08-02 01:48:00,
2013-08-01 21:53:00,70.9,69.1,29.88,WNW,294,5.8,7.2,94,0.00,,---,0.00,VWS V14.01,2013-08-02 01:53:00,
2013-08-01 21:58:00,70.7,68.6,29.88,West,277,3.6,7.6,93,0.00,,---,0.00,VWS V14.01,2013-08-02 01:58:00,
2013-08-01 22:04:00,70.7,68.6,29.88,WNW,284,5.8,8.1,93,0.00,,---,0.00,VWS V14.01,2013-08-02 02:04:00,
2013-08-01 22:09:00,70.7,68.3,29.88,NNW,335,4.9,6.3,92,0.00,,---,0.00,VWS V14.01,2013-08-02 02:09:00,
2013-08-01 22:14:00,70.9,68.4,29.88,West,272,4.0,8.7,92,0.00,,---,0.00,VWS V14.01,2013-08-02 02:14:00,
2013-08-01 22:19:00,70.9,68.4,29.88,West,280,5.4,8.7,92,0.00,,---,0.00,VWS V14.01,2013-08-02 02:19:00,
2013-08-01 22:24:00,71.1,68.6,29.88,WNW,298,8.7,8.7,92,0.00,,---,0.00,VWS V14.01,2013-08-02 02:24:00,
2013-08-01 22:30:00,71.1,68.9,29.88,West,271,3.6,8.1,93,0.00,,---,0.00,VWS V14.01,2013-08-02 02:30:00,
2013-08-01 22:35:00,71.2,69.1,29.88,West,273,0.0,5.4,93,0.00,,---,0.00,VWS V14.01,2013-08-02 02:35:00,
2013-08-01 22:40:00,71.2,69.1,29.88,WNW,290,0.0,4.0,93,0.00,,---,0.00,VWS V14.01,2013-08-02 02:40:00,
2013-08-01 22:45:00,71.2,69.1,29.88,West,275,5.8,6.3,93,0.00,,---,0.00,VWS V14.01,2013-08-02 02:45:00,
2013-08-01 22:52:00,71.2,69.1,29.88,WSW,252,5.8,6.3,93,0.00,,---,0.00,VWS V14.01,2013-08-02 02:52:00,
2013-08-01 22:58:00,71.2,69.4,29.88,West,276,4.9,7.6,94,0.00,,---,0.00,VWS V14.01,2013-08-02 02:58:00,
2013-08-01 23:03:00,71.2,69.4,29.88,WNW,284,4.0,4.5,94,0.00,,---,0.00,VWS V14.01,2013-08-02 03:03:00,
2013-08-01 23:09:00,71.2,69.4,29.88,WNW,293,4.0,4.0,94,0.00,,---,0.00,VWS V14.01,2013-08-02 03:09:00,
2013-08-01 23:14:00,71.1,69.2,29.88,NW,325,0.0,2.2,94,0.00,,---,0.00,VWS V14.01,2013-08-02 03:14:00,
2013-08-01 23:19:00,71.2,69.4,29.88,WNW,288,4.0,4.0,94,0.00,,---,0.00,VWS V14.01,2013-08-02 03:19:00,
2013-08-01 23:26:00,71.2,69.4,29.88,West,271,4.9,4.9,94,0.00,,---,0.00,VWS V14.01,2013-08-02 03:26:00,
2013-08-01 23:31:00,71.4,69.9,29.88,West,269,2.7,3.1,95,0.00,,---,0.00,VWS V14.01,2013-08-02 03:31:00,
2013-08-01 23:37:00,71.4,69.9,29.88,WSW,247,5.4,5.4,95,0.00,,---,0.00,VWS V14.01,2013-08-02 03:37:00,
2013-08-01 23:44:00,71.2,69.7,29.88,WNW,298,2.7,5.4,95,0.00,,---,0.00,VWS V14.01,2013-08-02 03:44:00,
2013-08-01 23:49:00,71.2,69.7,29.88,NNW,340,3.6,3.6,95,0.00,,---,0.00,VWS V14.01,2013-08-02 03:49:00,
2013-08-01 23:54:00,71.2,69.7,29.88,NW,323,3.6,3.6,95,0.00,,---,0.00,VWS V14.01,2013-08-02 03:54:00,
2013-08-01 23:59:00,71.4,69.9,29.88,West,268,4.9,4.9,95,0.00,,---,0.00,VWS V14.01,2013-08-02 03:59:00,